TimeEST,TemperatureF,Dew PointF,Humidity,Sea Level PressureIn,VisibilityMPH,Wind Direction,Wind SpeedMPH,Gust SpeedMPH,PrecipitationIn,Events,Conditions,WindDirDegrees,DateUTC
12:15 AM,19.6,17.6,92,30.08,10.0,North,-9999.0,-,N/A,,Clear,0,2014-02-16 05:15:00
12:35 AM,18.3,16.9,94,30.09,10.0,North,-9999.0,-,N/A,,Clear,0,2014-02-16 05:35:00
12:55 AM,17.4,16.3,96,30.10,10.0,North,-9999.0,-,N/A,,Scattered Clouds,0,2014-02-16 05:55:00
1:15 AM,17.2,16.2,96,30.08,10.0,North,-9999.0,-,N/A,,Mostly Cloudy,0,2014-02-16 06:15:00
1:35 AM,17.6,16.7,96,30.07,10.0,North,-9999.0,-,N/A,,Overcast,0,2014-02-16 06:35:00
1:55 AM,18.1,17.1,96,30.06,10.0,North,-9999.0,-,N/A,,Mostly Cloudy,0,2014-02-16 06:55:00
2:55 AM,20.1,19.2,96,30.06,10.0,North,-9999.0,-,N/A,,Overcast,0,2014-02-16 07:55:00
3:15 AM,20.7,19.8,96,30.06,10.0,North,-9999.0,-,N/A,,Overcast,0,2014-02-16 08:15:00
3:35 AM,21.6,20.5,96,30.06,10.0,North,-9999.0,-,N/A,,Overcast,0,2014-02-16 08:35:00
3:55 AM,22.1,20.8,95,30.06,2.5,North,-9999.0,-,N/A,Snow,Light Snow,0,2014-02-16 08:55:00
4:15 AM,21.9,21.2,97,30.07,1.8,North,-9999.0,-,N/A,Snow,Light Snow,0,2014-02-16 09:15:00
4:35 AM,22.6,21.2,94,30.06,2.5,North,-9999.0,-,N/A,Snow,Light Snow,0,2014-02-16 09:35:00
4:55 AM,22.3,21.2,96,30.05,2.5,North,-9999.0,-,N/A,Snow,Light Snow,0,2014-02-16 09:55:00
5:15 AM,22.5,21.2,95,30.06,1.5,North,-9999.0,-,N/A,Snow,Light Snow,0,2014-02-16 10:15:00
5:35 AM,22.8,21.9,96,30.05,2.0,North,-9999.0,-,N/A,Snow,Light Snow,0,2014-02-16 10:35:00
5:55 AM,22.5,21.7,97,30.05,1.5,North,-9999.0,-,N/A,Snow,Light Snow,0,2014-02-16 10:55:00
6:15 AM,22.8,21.9,96,30.04,10.0,North,-9999.0,-,N/A,,Overcast,0,2014-02-16 11:15:00
6:35 AM,23.0,22.1,96,30.04,10.0,North,-9999.0,-,N/A,,Overcast,0,2014-02-16 11:35:00
6:55 AM,23.0,22.1,96,30.03,10.0,North,-9999.0,-,N/A,,Overcast,0,2014-02-16 11:55:00
7:15 AM,23.4,22.3,96,30.05,10.0,North,-9999.0,-,N/A,,Overcast,0,2014-02-16 12:15:00
7:35 AM,23.4,22.1,95,30.05,10.0,North,-9999.0,-,N/A,,Overcast,0,2014-02-16 12:35:00
7:55 AM,23.7,22.6,96,30.05,10.0,North,-9999.0,-,N/A,,Overcast,0,2014-02-16 12:55:00
8:15 AM,24.4,23.0,94,30.05,10.0,North,-9999.0,-,N/A,,Overcast,0,2014-02-16 13:15:00
8:35 AM,25.3,23.4,92,30.05,10.0,North,-9999.0,-,N/A,,Overcast,0,2014-02-16 13:35:00
8:55 AM,25.7,23.5,92,30.05,10.0,North,-9999.0,-,N/A,,Overcast,0,2014-02-16 13:55:00
9:15 AM,26.8,24.3,90,30.05,10.0,North,-9999.0,-,N/A,,Overcast,0,2014-02-16 14:15:00
9:35 AM,27.3,24.4,89,30.05,10.0,North,-9999.0,-,N/A,,Overcast,0,2014-02-16 14:35:00
9:55 AM,28.8,25.3,87,30.05,10.0,North,-9999.0,-,N/A,,Overcast,0,2014-02-16 14:55:00
10:15 AM,30.0,25.9,85,30.05,10.0,North,-9999.0,-,N/A,,Overcast,0,2014-02-16 15:15:00
10:35 AM,30.2,26.2,85,30.06,10.0,North,-9999.0,-,N/A,,Overcast,0,2014-02-16 15:35:00
10:55 AM,30.6,26.4,85,30.06,10.0,North,-9999.0,-,N/A,,Overcast,0,2014-02-16 15:55:00
11:15 AM,31.1,26.6,83,30.06,10.0,North,-9999.0,-,N/A,,Overcast,0,2014-02-16 16:15:00
11:35 AM,32.0,27.1,82,30.06,10.0,North,-9999.0,-,N/A,,Overcast,0,2014-02-16 16:35:00
11:55 AM,32.5,27.5,82,30.06,10.0,North,-9999.0,-,N/A,,Overcast,0,2014-02-16 16:55:00
12:15 PM,33.3,27.5,79,30.06,10.0,North,-9999.0,-,N/A,,Overcast,0,2014-02-16 17:15:00
12:35 PM,34.0,27.7,78,30.06,10.0,North,-9999.0,-,N/A,,Overcast,0,2014-02-16 17:35:00
12:55 PM,33.8,28.0,79,30.06,10.0,North,-9999.0,-,N/A,,Overcast,0,2014-02-16 17:55:00
1:15 PM,34.0,28.2,79,30.06,10.0,North,-9999.0,-,N/A,,Overcast,0,2014-02-16 18:15:00
1:35 PM,34.3,28.2,78,30.06,10.0,North,-9999.0,-,N/A,,Overcast,0,2014-02-16 18:35:00
1:55 PM,34.9,28.4,77,30.05,10.0,North,-9999.0,-,N/A,,Overcast,0,2014-02-16 18:55:00
2:15 PM,34.9,28.9,79,30.06,10.0,North,-9999.0,-,N/A,,Overcast,0,2014-02-16 19:15:00
2:35 PM,35.6,29.3,78,30.05,10.0,North,-9999.0,-,N/A,,Overcast,0,2014-02-16 19:35:00
2:55 PM,36.3,29.8,77,30.05,10.0,North,-9999.0,-,N/A,,Overcast,0,2014-02-16 19:55:00
3:15 PM,36.5,30.0,77,30.06,10.0,North,-9999.0,-,N/A,,Overcast,0,2014-02-16 20:15:00
3:35 PM,36.7,30.2,77,30.06,10.0,North,-9999.0,-,N/A,,Overcast,0,2014-02-16 20:35:00
3:55 PM,36.9,30.2,77,30.08,10.0,North,-9999.0,-,N/A,,Overcast,0,2014-02-16 20:55:00
4:15 PM,36.9,30.6,78,30.08,10.0,North,-9999.0,-,N/A,,Overcast,0,2014-02-16 21:15:00
4:35 PM,37.0,30.7,78,30.10,10.0,North,-9999.0,-,N/A,,Overcast,0,2014-02-16 21:35:00
4:55 PM,37.0,30.7,78,30.10,10.0,North,-9999.0,-,N/A,,Overcast,0,2014-02-16 21:55:00
5:15 PM,37.0,30.2,76,30.12,10.0,North,-9999.0,-,N/A,,Overcast,0,2014-02-16 22:15:00
5:35 PM,36.9,30.0,76,30.13,10.0,North,-9999.0,-,N/A,,Overcast,0,2014-02-16 22:35:00
5:55 PM,36.7,29.8,76,30.13,10.0,North,-9999.0,-,N/A,,Overcast,0,2014-02-16 22:55:00
6:15 PM,36.5,29.5,76,30.15,10.0,North,-9999.0,-,N/A,,Overcast,0,2014-02-16 23:15:00
6:35 PM,35.8,30.0,80,30.16,10.0,North,-9999.0,-,N/A,,Overcast,0,2014-02-16 23:35:00
6:55 PM,35.6,29.3,78,30.18,10.0,North,-9999.0,-,N/A,,Overcast,0,2014-02-16 23:55:00
7:15 PM,36.0,28.6,75,30.18,10.0,North,-9999.0,-,N/A,,Overcast,0,2014-02-17 00:15:00
7:35 PM,36.0,27.7,72,30.19,10.0,North,-9999.0,-,N/A,,Overcast,0,2014-02-17 00:35:00
7:55 PM,35.8,27.1,71,30.20,10.0,North,-9999.0,-,N/A,,Overcast,0,2014-02-17 00:55:00
8:15 PM,35.2,27.5,73,30.21,10.0,North,-9999.0,-,N/A,,Overcast,0,2014-02-17 01:15:00
8:35 PM,34.9,27.5,74,30.21,10.0,North,-9999.0,-,N/A,,Overcast,0,2014-02-17 01:35:00
8:55 PM,34.9,26.8,72,30.22,10.0,North,-9999.0,-,N/A,,Overcast,0,2014-02-17 01:55:00
9:15 PM,34.3,27.3,76,30.23,10.0,North,-9999.0,-,N/A,,Overcast,0,2014-02-17 02:15:00
9:35 PM,34.2,26.6,74,30.23,10.0,North,-9999.0,-,N/A,,Overcast,0,2014-02-17 02:35:00
9:55 PM,33.8,24.8,70,30.24,10.0,North,-9999.0,-,N/A,,Overcast,0,2014-02-17 02:55:00
10:15 PM,32.9,25.2,73,30.25,10.0,North,-9999.0,-,N/A,,Mostly Cloudy,0,2014-02-17 03:15:00
10:35 PM,31.6,24.4,75,30.25,10.0,North,-9999.0,-,N/A,,Scattered Clouds,0,2014-02-17 03:35:00
10:55 PM,30.0,24.1,79,30.24,10.0,North,-9999.0,-,N/A,,Clear,0,2014-02-17 03:55:00
11:15 PM,27.3,23.7,86,30.25,10.0,North,-9999.0,-,N/A,,Clear,0,2014-02-17 04:15:00
11:35 PM,26.4,23.5,89,30.25,10.0,North,-9999.0,-,N/A,,Clear,0,2014-02-17 04:35:00
11:55 PM,25.5,23.0,90,30.25,10.0,North,-9999.0,-,N/A,,Clear,0,2014-02-17 04:55:00